Content
SEND FEEDBACK

Daily
Averages
Monthly
Summary
United States of America

LONG'S PEAK, COLORADO


Home > North America > United States > Colorado
Elevation: 8612 feet     Latitude: 40 15N     Longitude: 105 51W

WEATHER
 
SELECT A DAY
Number of Records: 261,642;   Date Range: 8/13/03 - 8/18/14
 
SHARE

PRINT THIS DATA

[ ← Previous Day ]
WEATHER ALMANAC - JANUARY 31, 2013
[ Next Day → ]
[ °C ]   °F
Weather ElementAverageHighLow
Temperature28.1 °F33.8 °F (12:35 pm)19.4 °F (8:15 pm)
Dewpoint18 °F21.2 °F (4:56 am)14 °F (8:15 pm)
Humidity67 %86 % (12:36 am)51 % (10:36 am)
Barometer30.16 in30.25 in (7:56 pm)30.00 in (12:56 am)
Wind Speed8.8 mph21.9 mph (11:56 am)
Wind Gust29.9 mph (11:56 am)
Weather ElementAverage
Wind DirectionSSW (209.4 °)

Weather ElementTotal
Precipitation---
Heating Degree Days38.4 (Base 65)
Averaged from 70 records on January 31, 2013
WEATHER CONDITIONS BREAKOUT
WIND DIRECTION BREAKOUT
WEATHER BY HOUR - JANUARY 31, 2013
[ °C ]   °F
Local TimeTemperatureDewpointHumidityBarometerVisibilityWind DirectionWind SpeedGust SpeedPrecipitationEventsConditions
12:36 AM23.0 °F19.4 °F86 %30.01 inWSW (250°)18.4 mph21.9 mphSnowLight Snow
12:56 AM23.0 °F19.4 °F86 %30.00 inWest (260°)18.4 mph21.9 mphSnowLight Snow
1:16 AM23.0 °F19.4 °F86 %30.01 inWSW (250°)17.3 mph26.5 mphSnowLight Snow
1:36 AM23.0 °F19.4 °F86 %30.01 inWest (260°)18.4 mph24.2 mphSnowLight Snow
1:56 AM23.0 °F19.4 °F86 %30.01 inWSW (250°)18.4 mph25.3 mphSnowLight Snow
2:16 AM23.0 °F19.4 °F86 %30.02 inWSW (250°)19.6 mph25.3 mphSnowLight Snow
2:36 AM23.0 °F19.4 °F86 %30.02 inWSW (250°)13.8 mph24.2 mphSnowLight Snow
2:56 AM23.0 °F19.4 °F86 %30.02 inWSW (240°)11.5 mph17.3 mphSnowLight Snow
3:16 AM23.0 °F19.4 °F86 %30.03 inWSW (240°)11.5 mph17.3 mphSnowLight Snow
3:36 AM24.8 °F19.4 °F80 %30.03 inWSW (240°)12.7 mph19.6 mphSnowLight Snow
3:55 AM24.8 °F19.4 °F80 %30.04 inWSW (250°)10.4 mphSnowLight Snow
4:16 AM24.8 °F19.4 °F80 %30.06 inWSW (240°)8.1 mphSnowLight Snow
4:36 AM26.6 °F19.4 °F74 %30.06 inWSW (250°)5.8 mphSnowLight Snow
4:56 AM26.6 °F21.2 °F80 %30.07 inWest (260°)4.6 mphSnowLight Snow
5:16 AM28.4 °F21.2 °F74 %30.07 inWSW (250°)5.8 mphSnowLight Snow
5:36 AM28.4 °F19.4 °F69 %30.08 inWest (260°)6.9 mphOvercast
5:56 AM28.4 °F19.4 °F69 %30.07 inWSW (250°)6.9 mphSnowLight Snow
6:15 AM28.4 °F17.6 °F64 %30.08 inWSW (250°)9.2 mphOvercast
6:36 AM28.4 °F17.6 °F64 %30.09 inWest (260°)10.4 mphOvercast
6:56 AM28.4 °F17.6 °F64 %30.10 inWest (260°)13.8 mph20.7 mphOvercast
7:16 AM28.4 °F17.6 °F64 %30.11 inWSW (250°)8.1 mph25.3 mphOvercast
7:36 AM28.4 °F17.6 °F64 %30.11 inWest (270°)11.5 mphOvercast
7:56 AM28.4 °F15.8 °F59 %30.12 inSW (220°)5.8 mphOvercast
8:15 AM28.4 °F15.8 °F59 %30.14 inSW (220°)5.8 mphOvercast
8:36 AM28.4 °F17.6 °F64 %30.15 inWSW (240°)5.8 mphOvercast
8:56 AM30.2 °F17.6 °F60 %30.17 inSSW (210°)8.1 mphOvercast
9:16 AM32.0 °F17.6 °F55 %30.18 inSW (220°)8.1 mphOvercast
9:36 AM32.0 °F17.6 °F55 %30.18 inSW (230°)8.1 mphOvercast
9:56 AM32.0 °F17.6 °F55 %30.18 inSW (230°)12.7 mph18.4 mphOvercast
10:15 AM32.0 °F17.6 °F55 %30.19 inWSW (240°)16.1 mphOvercast
10:36 AM32.0 °F15.8 °F51 %30.20 inWSW (250°)13.8 mphOvercast
10:55 AM32.0 °F17.6 °F55 %30.21 inWest (260°)17.3 mph24.2 mphOvercast
11:15 AM32.0 °F17.6 °F55 %30.21 inWSW (250°)19.6 mph24.2 mphOvercast
11:35 AM32.0 °F17.6 °F55 %30.21 inWSW (250°)16.1 mph23.0 mphOvercast
11:56 AM32.0 °F17.6 °F55 %30.21 inWest (260°)21.9 mph29.9 mphOvercast
12:16 PM32.0 °F17.6 °F55 %30.21 inWest (260°)13.8 mph20.7 mphOvercast
12:35 PM33.8 °F19.4 °F56 %30.21 inWest (260°)15.0 mph19.6 mphOvercast
12:56 PM33.8 °F19.4 °F56 %30.20 inWest (260°)10.4 mphOvercast
1:16 PM33.8 °F17.6 °F52 %30.20 inWSW (250°)8.1 mphOvercast
1:36 PM33.8 °F19.4 °F56 %30.20 inWest (260°)11.5 mph18.4 mphOvercast
1:56 PM33.8 °F17.6 °F52 %30.19 inWSW (240°)10.4 mphOvercast
2:16 PM33.8 °F17.6 °F52 %30.18 inWSW (250°)9.2 mphOvercast
2:36 PM33.8 °F19.4 °F56 %30.18 inSSW (210°)9.2 mphOvercast
2:56 PM33.8 °F17.6 °F52 %30.18 inSW (220°)8.1 mphOvercast
3:16 PM33.8 °F17.6 °F52 %30.18 inSW (220°)11.5 mphOvercast
3:36 PM33.8 °F17.6 °F52 %30.18 inSW (220°)10.4 mphOvercast
3:56 PM33.8 °F17.6 °F52 %30.18 inSW (220°)10.4 mphMostly Cloudy
4:16 PM32.0 °F17.6 °F55 %30.18 inSW (220°)9.2 mphMostly Cloudy
4:36 PM32.0 °F17.6 °F55 %30.18 inSW (230°)5.8 mphOvercast
4:56 PM32.0 °F17.6 °F55 %30.19 inWest (260°)6.9 mphOvercast
5:16 PM30.2 °F17.6 °F60 %30.19 inNNW (340°)6.9 mphOvercast
5:36 PM30.2 °F17.6 °F60 %30.20 inCalmScattered Clouds
6:16 PM30.2 °F19.4 °F64 %30.22 inCalmMostly Cloudy
6:35 PM28.4 °F17.6 °F64 %30.22 inCalmMostly Cloudy
6:56 PM26.6 °F17.6 °F69 %30.23 inCalmMostly Cloudy
7:16 PM23.0 °F15.8 °F74 %30.24 inCalmMostly Cloudy
7:36 PM23.0 °F15.8 °F74 %30.24 inCalmMostly Cloudy
7:56 PM21.2 °F15.8 °F80 %30.25 inNorth (360°)3.5 mphMostly Cloudy
8:15 PM19.4 °F14.0 °F80 %30.25 inCalmOvercast
8:36 PM19.4 °F14.0 °F80 %30.25 inCalmOvercast
8:56 PM19.4 °F14.0 °F80 %30.25 inCalmOvercast
9:16 PM21.2 °F15.8 °F80 %30.25 inNW (320°)3.5 mphOvercast
9:36 PM21.2 °F15.8 °F80 %30.24 inCalmOvercast
9:55 PM21.2 °F15.8 °F80 %30.24 inCalmOvercast
10:15 PM23.0 °F17.6 °F80 %30.24 inCalmOvercast
10:36 PM28.4 °F19.4 °F69 %30.22 inWest (280°)6.9 mphOvercast
10:55 PM28.4 °F19.4 °F69 %30.22 inWest (280°)8.1 mphOvercast
11:15 PM28.4 °F19.4 °F69 %30.22 inWest (280°)8.1 mphOvercast
11:36 PM28.4 °F19.4 °F69 %30.21 inWNW (300°)4.6 mphOvercast
11:56 PM28.4 °F19.4 °F69 %30.21 inWNW (300°)3.5 mphOvercast
Hourly data recorded from K20V, located miles away from Long's Peak, Colorado







STORIES FROM OUR PARTNERS